Date,TemperatureHighF,TemperatureAvgF,TemperatureLowF,DewpointHighF,DewpointAvgF,DewpointLowF,HumidityHigh,HumidityAvg,HumidityLow,PressureMaxIn,PressureMinIn,WindSpeedMaxMPH,WindSpeedAvgMPH,GustSpeedMaxMPH,PrecipitationSumIn
2013-1-1,36.5,34.1,29.1,34.7,32.0,24.0,95,92,81,29.95,29.82,22,7,22,0.01
2013-1-2,33.6,26.2,17.8,18.1,15.0,9.6,81,63,44,30.05,29.97,8,2,8,0.00
2013-1-3,40.1,28.7,18.9,28.5,20.6,11.4,82,72,59,30.19,30.01,16,3,16,0.00
2013-1-4,43.0,33.0,23.2,32.9,25.6,19.1,87,75,57,30.23,30.13,19,5,19,0.00
2013-1-5,43.3,36.1,26.4,33.5,29.3,21.6,87,76,62,30.14,29.98,14,6,14,0.00
2013-1-6,41.7,35.2,24.8,35.6,28.5,18.8,92,77,59,30.17,29.91,24,8,24,0.00
2013-1-7,46.9,32.5,20.1,28.5,22.8,16.4,86,69,45,30.23,29.98,16,4,16,0.00
2013-1-8,55.6,42.7,29.7,36.3,30.2,21.9,74,62,42,30.04,29.94,20,5,20,0.00
2013-1-9,59.0,50.6,45.1,47.6,41.8,36.5,90,72,60,30.19,29.99,19,6,19,0.04
2013-1-10,66.9,55.6,45.7,62.4,52.5,37.7,97,89,65,30.18,29.63,34,15,34,0.86
2013-1-11,63.0,58.4,54.9,57.0,51.8,48.5,90,79,63,29.77,29.63,24,11,27,0.01
2013-1-12,69.6,63.6,47.8,65.6,61.2,46.6,98,92,84,29.73,27.19,34,9,34,1.31
2013-1-13,47.5,33.5,25.3,46.4,30.6,18.6,98,89,72,30.08,29.53,32,8,34,1.51
2013-1-14,29.1,25.8,21.4,22.4,17.7,13.3,78,71,67,30.19,29.93,17,5,17,0.00
2013-1-15,32.2,29.4,24.1,25.6,23.5,18.0,87,79,65,30.10,29.85,21,9,21,0.01
2013-1-16,33.1,30.8,28.8,26.7,25.3,24.3,88,80,72,29.92,29.83,14,4,14,0.00
2013-1-17,45.9,34.7,25.2,34.9,27.0,19.3,88,74,63,30.21,29.86,34,9,34,0.01
2013-1-18,47.3,42.1,31.5,31.5,28.2,21.4,66,57,52,29.92,29.61,17,9,17,0.01
2013-1-19,56.5,46.5,35.6,36.5,32.3,25.9,71,58,44,29.71,29.48,34,14,34,0.00
2013-1-20,48.4,39.9,28.2,35.8,22.1,9.1,83,52,23,29.73,29.55,21,7,21,0.00
2013-1-21,35.1,27.9,23.0,16.0,9.3,1.2,61,46,33,29.78,29.65,29,11,29,0.00
2013-1-22,27.0,22.0,17.4,3.1,-3.6,-8.9,46,32,23,29.89,29.77,17,4,17,0.00
2013-1-23,47.1,32.1,18.7,30.7,17.3,0.5,78,55,42,29.80,29.57,21,5,21,0.00
2013-1-24,34.9,29.6,22.3,26.4,10.5,3.2,74,45,30,29.97,29.67,26,12,26,0.00
2013-1-25,40.6,32.3,27.0,27.9,21.7,3.2,86,66,30,29.68,29.53,21,6,21,0.02
2013-1-26,49.1,35.8,27.0,29.1,22.8,16.9,87,61,36,29.79,29.66,15,4,15,0.00
2013-1-27,53.2,40.5,30.9,46.2,34.7,18.2,95,80,58,29.75,29.51,19,9,19,0.11
2013-1-28,64.6,58.7,53.2,58.6,54.0,46.2,95,85,72,29.54,29.45,26,14,26,0.08
2013-1-29,71.1,64.4,53.8,61.4,58.1,51.6,94,80,69,29.46,28.85,64,19,64,1.44
2013-1-30,56.7,46.2,33.1,52.4,39.9,18.9,97,79,55,29.37,28.87,46,18,46,0.74
2013-1-31,41.9,32.9,20.8,31.0,21.2,4.3,91,62,48,29.76,29.38,36,18,36,0.00
2013-2-1,27.3,21.2,13.1,12.2,3.6,-3.3,56,46,32,29.95,29.73,30,8,34,0.00
2013-2-2,42.3,33.9,25.7,30.4,21.8,11.7,74,61,49,29.96,29.51,24,8,24,0.00
2013-2-3,43.2,36.5,29.8,32.1,24.3,16.7,78,62,44,29.99,29.83,34,10,34,0.00
2013-2-4,48.4,40.0,30.0,39.6,31.2,20.2,92,71,46,29.91,29.70,27,10,27,0.01
2013-2-5,55.4,40.9,29.1,42.0,35.1,26.3,98,81,52,29.91,29.75,17,5,17,0.00
2013-2-6,54.1,43.1,31.1,38.4,30.6,26.8,99,64,36,30.08,29.91,14,6,14,0.00
2013-2-7,64.0,53.5,41.5,54.2,42.3,29.6,95,66,52,29.91,29.69,28,8,28,0.19
2013-2-8,49.5,39.9,34.2,46.9,33.5,26.1,91,78,64,30.19,29.77,30,14,30,0.00
2013-2-9,48.6,39.7,32.0,33.2,28.7,25.0,75,65,50,30.19,29.88,20,8,20,0.00
2013-2-10,57.7,52.9,45.3,54.4,44.8,32.8,89,75,53,29.88,29.53,44,17,44,0.73
2013-2-11,56.1,47.0,36.5,50.0,31.7,27.0,80,56,45,29.98,29.70,28,12,28,0.00
2013-2-12,49.8,42.4,30.2,35.8,29.9,26.5,87,63,44,29.99,29.69,16,4,16,0.02
2013-2-13,46.2,40.2,36.1,37.3,35.4,32.7,91,83,63,29.78,29.65,19,9,19,0.28
2013-2-14,59.0,46.3,35.4,42.4,37.3,32.1,92,72,51,29.86,29.74,21,9,21,0.00
2013-2-15,45.7,39.9,29.8,34.2,25.3,13.1,80,57,34,30.05,29.86,29,8,29,0.00
2013-2-16,37.0,32.4,25.9,12.5,5.2,1.8,45,32,24,29.92,29.87,24,7,24,0.00
2013-2-17,48.0,39.7,24.3,26.5,19.7,6.1,64,45,35,29.93,29.73,21,9,21,0.00
2013-2-18,58.8,48.9,40.5,47.5,38.3,24.2,91,68,44,29.74,29.38,40,18,40,0.96
2013-2-19,44.1,42.5,39.7,39.2,36.3,32.8,83,79,75,29.65,29.57,34,19,34,0.00
2013-2-21,33.3,32.7,32.0,30.4,29.3,28.0,89,87,85,29.97,29.89,0,0,0,0.00
2013-2-22,41.7,41.2,40.8,35.7,35.5,35.0,81,80,79,30.10,30.09,18,13,19,0.00
2013-2-23,43.3,34.6,26.8,26.2,23.6,19.8,79,65,46,29.92,29.82,13,5,13,0.00
2013-2-24,52.9,39.0,25.5,27.3,23.3,18.9,78,56,32,29.99,29.85,11,5,11,0.00
2013-2-25,57.4,49.8,35.8,39.1,29.3,23.4,81,47,27,29.87,29.27,31,18,31,0.20
2013-2-26,50.7,44.2,38.8,49.2,40.0,33.8,96,85,74,29.54,29.18,30,16,30,0.60
2013-2-27,39.4,37.6,33.8,34.1,31.4,28.5,85,78,66,29.75,29.54,28,16,28,0.00
2013-2-28,38.5,35.4,33.4,31.1,28.0,24.0,87,74,66,29.95,29.75,22,12,22,0.00
2013-3-1,36.5,33.5,31.1,32.0,30.2,27.7,92,88,79,29.99,29.89,18,8,18,0.01
2013-3-2,33.1,31.1,30.0,27.7,23.2,14.2,88,73,48,30.07,29.95,27,11,27,0.00
2013-3-3,41.4,33.3,23.4,26.8,18.8,14.1,72,56,38,30.06,29.93,16,5,16,0.00
2013-3-4,59.0,46.9,36.7,40.8,28.1,21.2,77,49,34,29.95,29.64,34,11,34,0.07
2013-3-5,48.2,41.0,33.8,43.9,34.3,17.0,95,78,48,29.91,29.59,50,16,50,0.17
2013-3-6,42.4,35.8,28.8,27.4,23.6,20.9,74,61,53,30.19,29.95,33,15,33,0.00
2013-3-7,48.6,36.0,24.1,30.3,24.9,19.4,85,65,46,30.26,29.61,34,4,34,0.00
2013-3-8,56.5,43.1,28.2,31.7,26.9,14.6,82,56,26,30.01,29.82,20,7,20,0.00
2013-3-9,68.9,54.8,43.5,37.5,31.8,26.3,58,43,26,29.82,29.52,24,11,24,0.00
2013-3-10,66.0,57.0,50.2,55.4,44.8,37.5,99,67,48,29.52,29.30,39,13,39,0.53
2013-3-11,40.1,38.9,37.6,36.0,32.6,26.9,85,78,65,30.42,29.92,30,13,30,0.53
2013-3-12,51.3,41.1,29.8,32.2,27.5,21.5,87,60,37,30.27,30.09,24,8,24,0.00
2013-3-13,43.5,37.0,30.2,27.6,19.7,15.4,66,50,33,30.50,30.27,33,12,33,0.00
2013-3-14,49.6,37.8,25.2,28.6,22.9,15.6,73,56,41,30.50,30.21,17,6,17,0.00
2013-3-15,74.8,57.6,40.1,53.6,42.1,25.6,76,57,43,30.21,29.86,27,10,27,0.00
2013-3-16,69.3,57.5,39.6,54.5,46.1,34.8,83,66,55,30.06,29.83,36,14,36,0.00
2013-3-17,44.8,41.3,37.8,43.2,39.7,36.5,99,94,80,30.14,29.80,23,11,23,0.72
2013-3-18,51.4,44.9,39.7,46.5,41.9,37.3,99,90,70,30.09,29.73,30,12,30,0.25
2013-3-19,52.3,43.9,36.5,37.3,25.7,13.7,89,56,22,30.29,30.08,23,6,23,0.25
2013-3-20,44.2,37.1,28.2,29.8,20.5,12.9,61,51,42,30.31,27.22,29,8,29,0.00
2013-3-21,43.5,32.5,21.4,20.2,13.8,6.5,70,48,28,30.20,30.06,17,5,17,0.00
2013-3-22,43.2,38.7,34.3,26.0,22.6,19.2,57,52,47,30.15,30.03,16,8,16,0.00
2013-3-23,54.7,46.7,41.4,42.9,31.8,26.0,88,57,45,30.07,29.83,22,9,22,0.01
2013-3-24,46.8,40.3,33.8,42.6,37.0,27.9,97,88,74,29.87,29.54,36,17,36,0.14
2013-3-25,38.5,34.3,32.0,30.8,26.7,23.6,93,74,58,30.26,29.87,35,20,35,0.00
2013-3-26,43.5,35.6,29.7,31.1,26.4,21.0,91,70,47,30.44,30.26,22,8,22,0.00
2013-3-27,49.5,39.2,25.9,30.6,24.5,19.4,81,57,37,30.48,30.38,19,3,19,0.00
2013-3-28,60.8,49.8,40.1,38.8,32.9,29.0,70,53,37,30.45,30.33,14,4,14,0.00
2013-3-29,57.2,50.6,45.5,49.9,45.3,36.2,94,83,53,30.35,30.26,20,6,20,0.65
2013-3-30,48.7,46.1,44.4,48.5,45.3,43.0,99,97,93,30.29,30.22,15,6,15,0.00
2013-4-7,71.6,67.2,60.8,58.5,57.2,55.3,82,71,62,29.92,29.85,14,10,14,0.34
2013-4-8,74.3,66.4,58.8,59.9,56.8,52.8,86,72,57,29.88,29.78,23,10,23,0.02
2013-4-9,79.5,74.0,63.0,67.3,64.9,56.7,86,74,63,29.95,29.81,29,12,29,0.00
2013-4-10,83.1,75.8,64.2,69.3,66.4,63.4,99,73,56,29.87,29.62,29,14,29,0.25
2013-4-11,66.9,55.5,44.8,66.7,54.2,38.0,99,95,75,29.72,29.52,34,10,34,1.05
2013-4-12,60.8,48.6,39.4,43.2,38.4,34.5,92,70,40,29.99,29.70,33,10,33,0.00
2013-4-13,65.8,51.6,35.4,45.1,39.2,31.8,95,65,41,30.05,29.89,14,4,14,0.00
2013-4-14,74.5,62.8,50.7,56.8,48.0,42.2,75,60,39,29.89,29.69,37,12,37,0.02
2013-4-15,80.2,67.8,59.5,64.4,58.4,52.5,87,73,51,29.88,29.75,24,12,24,0.00
2013-4-16,69.3,69.3,69.3,57.4,57.4,57.4,66,66,66,29.96,29.88,13,13,13,0.00
2013-4-17,82.4,71.3,69.3,73.1,60.3,57.4,85,68,66,29.97,29.88,26,13,26,0.13
2013-4-18,79.0,70.7,45.9,69.4,64.0,45.1,99,81,58,29.90,29.66,45,17,45,1.59
2013-4-19,51.1,44.9,41.4,45.1,35.5,31.5,97,70,53,30.15,29.81,30,14,30,0.01
2013-4-20,62.6,49.6,34.7,45.8,35.7,31.0,99,63,32,30.37,30.15,19,4,19,0.00
2013-4-21,64.6,54.3,41.7,39.6,34.9,32.7,74,50,32,30.46,30.30,18,8,18,0.00
2013-4-22,73.6,60.8,46.8,49.8,43.5,34.6,73,54,35,30.32,30.09,19,7,19,0.00
2013-4-23,73.4,65.1,50.0,62.3,55.9,47.9,99,73,60,30.12,29.91,30,13,30,0.00
2013-4-24,53.1,45.0,39.4,49.4,40.6,36.3,99,86,56,30.35,29.97,34,10,34,0.21
2013-4-25,68.0,51.3,36.0,44.4,39.5,34.2,99,69,37,30.42,30.33,15,5,15,0.00
2013-4-26,52.9,51.5,50.2,50.9,46.8,41.4,99,85,68,30.48,30.30,21,6,21,0.41
2013-4-27,61.2,55.5,50.0,59.8,54.9,49.7,99,98,94,30.37,29.96,24,7,24,0.57
2013-4-28,62.2,57.1,53.1,58.7,54.8,52.5,99,92,79,30.02,29.95,16,6,16,0.01
2013-4-29,74.1,61.8,47.1,59.5,55.2,46.9,99,81,58,30.06,29.93,16,6,16,0.00
2013-4-30,83.3,70.8,56.8,60.2,56.7,52.4,91,64,39,30.04,29.94,16,7,16,0.00
2013-5-1,83.1,71.0,59.5,65.6,60.3,53.9,85,70,49,30.15,30.04,25,6,25,0.00
2013-5-2,73.2,67.7,61.7,63.0,59.9,57.2,97,77,61,30.20,30.08,11,4,11,0.07
2013-5-3,70.3,57.7,42.6,61.9,55.2,42.3,99,92,70,30.08,27.60,28,10,28,0.94
2013-5-4,53.2,44.5,41.2,42.4,40.8,38.4,99,88,62,30.01,29.92,16,6,16,0.14
2013-5-8,81.0,75.9,69.8,69.1,59.6,48.9,76,59,34,29.92,29.74,16,6,16,0.14
2013-5-9,80.4,73.0,68.4,65.1,61.6,60.3,77,68,53,29.92,29.80,26,9,26,0.00
2013-5-10,77.2,68.1,63.9,67.3,64.4,61.5,99,89,63,29.83,29.73,21,7,21,0.24
2013-5-13,70.3,56.5,0.0,65.8,42.5,33.6,96,41,32,29.99,29.77,11,6,11,0.24
2013-5-14,85.8,71.6,57.2,62.7,56.4,44.2,82,60,43,29.85,29.66,25,11,25,0.00
2013-5-15,84.0,76.1,69.1,64.2,59.0,55.3,66,56,43,29.77,29.65,24,11,24,0.00
2013-5-16,81.7,73.1,67.5,68.0,62.8,58.1,93,71,52,29.90,29.64,18,6,18,0.06
2013-5-17,74.1,68.5,63.7,68.5,65.5,62.3,99,90,81,29.93,29.87,23,7,23,0.15
2013-5-18,84.2,73.4,65.1,70.1,67.6,64.9,99,83,58,29.96,29.87,11,4,11,0.00
2013-5-19,87.8,79.5,70.9,75.8,71.2,67.6,99,77,54,29.89,29.78,20,8,20,0.00
2013-5-20,88.7,79.9,71.8,73.1,70.5,65.9,93,74,48,29.91,29.76,28,12,28,0.00
2013-5-21,79.3,70.6,65.7,72.7,67.4,64.5,99,90,67,30.54,29.73,46,12,46,1.26
2013-5-22,78.4,70.5,64.2,66.5,64.2,60.8,99,82,56,29.81,29.68,26,10,26,0.07
2013-5-23,73.6,66.7,58.1,64.9,58.2,52.7,94,75,57,30.12,29.81,27,11,27,0.00
2013-5-24,73.4,60.6,48.2,66.6,47.0,41.8,95,64,34,30.07,29.66,19,5,19,0.00
2013-5-25,78.3,64.8,50.0,57.2,51.7,46.8,93,65,38,30.05,29.86,65,4,65,0.00
2013-5-26,83.5,72.4,59.9,62.9,58.2,55.4,87,63,41,29.91,29.80,16,6,16,0.00
2013-5-31,79.0,78.8,78.3,74.1,73.9,73.6,86,85,84,29.96,29.92,21,13,21,0.59
2013-6-1,78.3,68.8,64.2,73.8,67.0,63.4,99,94,77,30.70,29.83,33,10,33,3.06
2013-6-2,75.6,69.7,65.1,67.6,63.5,60.2,99,82,62,30.05,29.95,18,7,18,0.00
2013-6-3,76.5,66.7,58.8,62.0,58.9,55.4,99,77,54,30.12,30.02,14,5,14,0.00
2013-6-4,83.1,69.7,55.0,63.9,59.7,54.2,97,73,47,30.12,30.02,15,4,15,0.00
2013-6-5,86.2,75.9,64.6,68.2,64.5,61.1,95,70,48,30.05,29.87,17,4,17,0.18
2013-6-6,82.2,74.0,67.1,69.5,66.2,61.9,99,78,54,29.91,29.83,17,7,17,0.14
2013-6-7,78.8,71.2,64.6,65.6,62.4,59.3,94,75,55,29.95,29.84,22,8,23,0.00
2013-6-8,82.0,71.5,59.7,65.7,60.2,51.5,99,71,40,30.05,29.94,19,3,19,0.00
2013-6-9,68.5,68.2,67.6,61.8,60.9,60.4,81,77,76,30.05,30.04,8,5,8,0.00
2013-6-11,93.6,80.2,64.2,76.0,70.4,63.4,99,74,54,29.92,29.84,14,5,14,0.00
2013-6-12,93.9,86.1,76.5,76.4,73.7,70.9,89,68,48,29.94,29.76,24,12,24,0.00
2013-6-13,84.9,79.0,68.7,75.1,69.4,63.8,88,73,57,29.89,29.74,24,13,24,0.00
2013-6-14,84.4,73.9,60.3,65.4,61.7,59.1,97,68,46,30.00,29.89,17,4,17,0.00
2013-6-15,87.6,76.4,63.0,69.6,64.6,61.4,96,70,43,30.02,29.90,13,4,13,0.00
2013-6-16,87.4,78.7,71.2,73.9,70.6,67.5,91,77,59,29.94,29.86,12,4,12,0.00
2013-6-17,88.5,71.5,67.6,74.7,69.9,67.4,99,95,56,29.87,29.81,19,6,42,0.83
2013-6-18,87.3,75.8,66.2,71.7,68.3,65.6,99,79,54,29.91,29.77,20,6,20,0.00
2013-6-19,90.9,77.0,64.6,73.8,68.8,64.1,99,78,44,29.98,29.88,17,4,17,0.19
2013-6-20,90.0,80.0,68.7,74.1,70.4,67.9,97,74,50,30.06,29.97,14,4,14,0.00
2013-6-21,90.1,81.6,72.3,74.5,71.4,68.6,93,72,52,30.08,30.00,17,6,17,0.00
2013-6-22,89.8,80.7,70.5,75.1,70.3,65.7,93,72,47,30.08,29.96,27,7,27,0.00
2013-6-23,88.7,79.3,69.8,73.5,69.9,65.7,92,74,54,30.03,29.91,17,6,17,0.00
2013-6-24,93.0,80.8,72.9,76.9,73.3,68.5,93,79,49,30.05,29.94,21,7,21,0.00
2013-6-25,90.9,83.1,75.9,77.6,74.9,73.2,94,77,60,29.97,29.81,20,8,20,0.00
2013-6-26,91.0,82.5,75.0,78.0,74.5,71.3,94,77,58,29.88,29.68,26,10,26,0.09
2013-6-27,93.6,83.8,74.1,77.2,73.0,67.8,98,73,44,29.81,29.73,24,8,24,0.00
2013-6-28,79.2,75.5,72.1,72.7,71.3,70.0,96,87,76,29.78,29.71,8,1,8,0.00
2013-9-19,88.2,78.7,70.9,76.3,73.4,69.9,97,85,62,30.25,30.14,10,4,10,0.00
2013-9-20,90.1,79.9,70.7,77.0,73.6,70.0,98,82,52,30.14,30.09,11,4,11,0.00
2013-9-21,92.8,81.9,72.1,76.3,72.9,69.7,93,76,54,30.12,30.07,9,3,9,0.00
2013-9-22,92.3,83.0,71.8,77.7,74.5,70.3,97,78,53,30.07,30.01,10,3,10,0.00
2013-9-23,93.6,83.9,75.7,79.4,76.5,74.2,95,80,55,29.99,29.91,10,4,10,0.00
2013-9-24,92.8,80.4,71.1,79.2,74.9,69.7,98,84,59,29.97,29.85,24,8,24,0.30
2013-9-25,82.8,74.4,64.2,76.5,68.1,63.4,99,82,61,29.95,29.88,11,2,11,0.00
2013-9-26,85.1,71.0,60.4,70.4,64.6,60.2,99,83,50,30.10,29.94,14,3,14,0.00
2013-9-27,82.8,70.5,58.5,65.7,60.5,55.1,99,74,42,30.20,30.09,14,4,14,0.00
2013-9-28,65.8,64.7,63.7,61.6,61.1,60.3,91,88,86,30.14,30.11,4,3,4,0.00
2013-10-24,39.0,37.3,34.7,30.4,28.6,26.9,74,70,66,30.09,30.02,6,1,6,0.00
2013-10-25,54.5,39.2,27.9,33.7,27.7,22.3,90,67,31,30.20,29.99,14,2,14,0.00
2013-10-26,59.5,46.8,31.6,46.2,38.1,28.1,92,72,55,29.99,29.73,21,6,21,0.00
2013-10-27,65.7,52.9,36.1,50.1,41.7,33.9,97,70,35,29.79,29.70,11,2,11,0.00
2013-10-28,72.3,58.0,47.3,55.2,50.7,46.8,98,79,48,29.91,29.73,21,2,21,0.00
2013-10-29,63.0,57.0,50.0,61.8,55.8,49.1,99,96,88,29.93,29.77,17,4,17,0.01
2013-10-30,76.1,69.0,62.6,67.4,64.3,61.5,98,85,71,29.81,29.63,23,8,23,0.01
2013-10-31,70.2,66.1,58.1,66.8,63.2,56.1,96,90,80,29.63,29.14,56,16,56,0.91
2013-11-1,66.6,57.6,50.5,56.2,49.4,43.8,98,76,48,29.52,29.36,30,8,30,0.01
2013-11-2,57.6,49.7,39.9,46.4,42.5,37.9,94,77,57,29.87,29.51,27,7,27,0.00
2013-11-3,60.1,47.3,34.3,46.7,36.7,31.9,99,71,36,29.99,29.85,17,4,17,0.00
2013-11-4,60.6,52.0,43.9,50.6,44.1,38.0,96,76,53,29.96,29.87,17,5,17,0.02
2013-11-5,64.6,59.0,52.2,53.0,47.4,44.2,84,66,54,29.99,29.80,24,9,24,0.00
2013-11-6,60.4,54.5,42.4,57.8,49.5,39.5,98,85,62,29.90,29.65,30,13,30,0.32
2013-11-7,53.6,43.7,36.3,39.8,34.7,29.1,96,74,40,30.05,29.91,16,5,16,0.00
2013-11-8,51.8,45.5,31.3,44.1,37.8,29.8,97,75,66,30.05,29.99,11,7,11,0.00
2013-11-9,51.3,51.3,51.3,40.3,40.3,40.3,66,66,66,30.04,30.04,11,11,11,0.00
2013-11-10,51.3,51.3,51.3,40.3,40.3,40.3,66,66,66,30.04,30.04,11,11,11,0.00
2013-11-11,51.3,51.3,51.3,40.3,40.3,40.3,66,66,66,30.04,30.04,11,11,11,0.00
2013-11-12,51.3,43.7,26.8,40.3,31.8,18.3,71,63,43,30.04,29.92,25,10,25,0.02
2013-11-13,45.7,33.2,19.8,27.1,20.2,16.3,87,61,33,30.01,29.71,13,2,13,0.00
2013-11-14,55.8,42.0,27.3,26.7,21.3,15.7,72,47,22,29.72,29.44,18,7,18,0.00
2013-11-15,51.8,46.5,43.2,45.6,32.6,23.6,81,59,44,29.45,29.35,14,7,14,0.01
2013-11-16,82.6,69.6,40.6,76.5,66.1,21.0,98,89,45,30.68,29.84,35,13,35,0.02
2013-11-17,75.9,67.2,57.2,70.4,57.0,29.1,97,74,32,30.03,29.62,46,17,46,0.76
2013-11-18,61.0,51.2,38.3,43.1,33.7,23.2,81,53,28,30.37,30.02,27,7,27,0.00
2013-11-19,49.3,41.0,36.3,32.0,30.0,27.1,78,65,47,30.41,30.26,14,4,14,0.00
2013-11-20,58.5,45.8,31.6,37.8,33.6,26.6,85,64,45,30.27,30.16,16,6,16,0.00
2013-11-21,60.3,55.2,50.2,56.7,48.9,37.0,96,80,58,30.28,30.21,20,7,20,0.21
2013-11-22,58.5,48.5,40.6,57.7,46.9,36.8,99,94,86,30.51,30.24,25,11,25,0.26
2013-11-23,43.2,35.3,23.7,36.8,23.1,9.6,87,63,27,30.73,30.49,36,13,36,0.00
2013-11-24,34.5,26.4,18.1,15.5,10.6,5.7,68,52,31,30.78,30.52,20,6,20,0.00
2013-11-25,37.4,32.9,28.9,31.6,21.6,14.8,93,64,45,30.52,30.25,14,5,14,0.00
2013-11-26,40.6,35.4,28.6,32.7,28.8,14.7,95,78,54,30.25,30.05,37,11,37,0.06
2013-11-27,30.9,24.8,20.8,14.7,6.6,-0.4,56,46,30,30.37,30.22,37,19,37,0.01
2013-11-28,92.8,84.1,75.7,79.4,76.8,74.2,95,80,59,29.42,29.30,10,5,10,0.00
2013-11-29,82.6,77.2,71.1,76.7,73.8,69.7,98,90,77,29.41,29.29,24,8,24,0.30
2013-11-30,73.4,47.2,34.3,72.8,28.6,23.6,98,50,28,29.92,29.35,21,8,21,0.00
2013-12-1,55.9,47.5,40.8,41.4,36.3,29.0,86,65,53,29.71,29.44,11,4,11,0.00
2013-12-2,60.3,50.4,42.3,49.1,44.5,38.1,96,81,66,29.43,29.23,12,3,12,0.00
2013-12-3,49.3,48.5,47.5,48.2,47.4,46.4,97,96,95,29.26,29.24,4,2,4,0.00
2013-12-4,92.8,81.5,71.1,79.4,75.3,69.7,98,83,59,29.75,29.62,24,8,24,0.30
2013-12-5,82.6,40.9,29.8,76.5,37.6,26.8,98,88,77,30.08,29.65,24,8,24,0.01
2013-12-6,72.7,25.4,20.5,71.8,21.6,14.8,97,85,78,30.16,29.37,14,0,14,0.00
2013-12-7,25.2,19.1,12.9,14.8,10.1,4.4,78,67,59,30.17,29.91,0,0,0,0.00
2013-12-8,32.4,27.7,21.0,30.6,24.0,14.9,93,86,76,29.92,29.57,0,0,0,0.01
2013-12-9,32.7,28.4,24.4,27.3,21.1,12.7,92,75,55,29.83,29.65,0,0,0,0.01
2013-12-10,33.4,26.4,19.8,21.5,18.2,13.3,84,71,59,29.93,29.77,15,2,15,0.04
2013-12-11,36.9,27.7,20.3,27.1,19.9,10.6,87,73,54,30.16,29.90,21,6,21,0.08
2013-12-12,34.2,21.9,9.1,13.9,6.9,-1.4,69,53,28,30.17,29.90,10,3,10,0.01
2013-12-13,40.5,32.4,20.7,30.5,20.8,12.3,81,63,45,29.90,29.52,17,6,17,0.12
2013-12-14,37.8,35.6,31.6,35.8,32.0,13.1,94,86,45,29.65,29.34,25,10,25,0.69
2013-12-15,32.5,30.9,29.5,28.3,25.7,23.5,86,81,76,29.78,29.64,20,10,20,0.00
2013-12-16,50.0,41.3,32.5,39.4,33.6,28.3,86,75,59,29.67,29.58,16,8,16,0.00
2013-12-17,46.0,38.0,30.0,37.3,30.1,22.9,90,74,51,29.83,29.62,16,6,16,0.00
2013-12-18,51.1,40.5,24.8,32.8,25.3,18.0,83,56,33,29.87,29.61,17,7,17,0.00
2013-12-19,60.3,52.4,45.0,49.7,42.2,32.8,75,68,61,29.63,29.45,26,14,26,0.00
2013-12-20,65.7,61.8,57.2,61.2,56.4,49.4,91,82,69,29.46,29.33,27,13,27,0.14
2013-12-21,65.7,52.1,32.0,62.5,50.6,11.0,98,95,41,30.79,29.00,30,10,30,4.18
2013-12-22,48.4,41.2,34.3,47.5,38.4,28.4,99,90,76,30.62,30.06,24,11,24,0.00
2013-12-23,34.9,31.0,26.1,28.6,22.5,15.9,83,71,58,30.90,30.62,24,10,24,0.00
2013-12-24,32.0,21.9,14.4,16.1,7.8,0.8,74,54,36,31.02,30.81,24,8,24,0.00
2013-12-25,22.8,22.1,21.4,12.2,11.5,10.7,66,63,59,30.82,30.79,11,4,11,0.00
2013-12-27,88.2,78.9,70.9,76.6,73.5,69.9,97,84,62,29.91,29.80,10,5,10,0.00
2013-12-28,88.7,79.7,70.7,77.0,73.9,70.0,98,83,62,29.79,29.72,10,4,10,0.00
2013-12-29,92.3,81.8,72.1,76.3,72.8,69.7,93,76,52,29.75,29.70,11,3,11,0.00
2013-12-30,92.8,83.0,71.8,77.7,74.4,70.3,97,77,53,29.72,29.66,9,3,9,0.00
2013-12-31,93.6,83.8,75.7,79.4,76.3,74.2,95,80,55,29.65,29.57,10,4,10,0.00
2014-1-1,92.8,81.2,71.1,79.2,75.2,69.7,98,83,59,29.60,29.48,24,8,24,0.30
2014-1-2,140.0,128.0,71.6,99.9,79.5,6.1,99,81,1,30.17,29.50,33,15,33,0.00